International Virtual Aviation Organisation

Russian Federation and Kazakhstan MCD

 

Карточка аэропорта UNOO

Внимание!
Информация на этой странице в стадии наполнения.
Если вы не увидели какой-то информации, или заметили неточность - пожалуйста сообщите нам!
Спасибо!
Команда RU-STAFF
Название аэропортаЦентральный
Название аэропорта (англ.)Tsentralny
Превышение303 ft. (92.4 m.)
Координаты54°58.02', 73°19.02'
Высота перехода800m
Эшелон переходаQFE>=751mm:FL050; QFE<751=>724:FL060; QFE<724:FL070
Коды ответчика5440-5467
Зона ОрВДНовосибирск РПИ (UNNT)
Данные METARUNOO 300130Z 01002MPS 8000 -SN BKN006 M17/M19 Q1048 R25/390242 NOSIG RMK OBST OBSC QFE777
Проноз погоды (TAF)UNOO 292258Z 3000/3024 36003G08MPS 4000 -SN BR BKN007 TEMPO 3000/3006 0300 -SN FZFG VV003 BECMG 3006/3007 6000 NSW BKN010
NOTAMshow/hide NOTAM
AWOS   TABLE

Информация о ВПП

ВПП Длина ВПП (м.) Покрытие Курс ВПП Частота ILS
072501Асфальтобетон65108.3
252501Асфальтобетон245110.1

Диспетчерские позиции

Позывной Наименование органа УВД Частота
UNOO_GNDОмск-Руление121.700
UNOO_TWRОмск - Старт119.000
UNOO_APPОмск - Подход131.200



Спутниковое изображение